This demonstration page uses our WeatherBlox Daily Observations layout. Learn more.

Left ArrowRight Arrow

44.8408, -93.29828

Hourly Observations for August 12, 2022

Temp ( °F °C ) Dew Point ( °F °C ) Humidity (%) Winds ( mph kmh ) Pressure ( in mb ) Visibility ( mi km ) Precip ( " mm )
12:53 am 00:53 Mostly Cloudy 71 21.7 55 12.8 57 57 ESE 9 15 30.15 1021 10 16 0.00 0.00
1:53 am 01:53 Mostly Cloudy 70 21.1 56 13.3 61 61 ESE 9 15 30.15 1021 10 16 0.00 0.00
2:53 am 02:53 Cloudy 69 20.6 57 13.9 65 65 SE 6 9 30.15 1021 10 16 0.00 0.00
3:53 am 03:53 Cloudy 70 21.1 56 13.3 61 61 SE 8 13 30.16 1021 10 16 0.00 0.00
4:53 am 04:53 Cloudy 69 20.6 57 13.9 65 65 SSE 7 11 30.14 1021 10 16 0.01 0.13
5:29 am 05:29 Cloudy with Light Rain 66 18.9 59 15 78 78 E 12 19 30.14 1021 2 3 0.17 4.32
5:37 am 05:37 Cloudy with Light Rain 67 19.4 59 15 76 76 E 12 19 30.14 1021 9 14 0.17 4.32
5:53 am 05:53 Cloudy 67 19.4 60 15.6 79 79 SE 14 22 30.15 1021 10 16 0.17 4.32
6:09 am 06:09 Cloudy 66 18.9 60 15.6 81 81 SE 13 20 30.14 1021 10 16 0.01 0.13
6:53 am 06:53 Cloudy with Rain 65 18.3 60 15.6 84 84 ESE 12 19 30.21 1023 4 6 0.03 0.76
7:11 am 07:11 Cloudy with Heavy Rain 64 17.8 60 15.6 87 87 ENE 10 17 30.24 1024 2 3 0.19 4.83
7:21 am 07:21 Cloudy with Strong Thunderstorms 63 17.2 60 15.6 90 90 N 8 13 30.30 1026 3 5 0.28 7.11
7:28 am 07:28 Cloudy with Strong Thunderstorms 63 17.2 61 16.1 93 93 E 10 17 30.27 1025 2 3 0.34 8.64
7:43 am 07:43 Cloudy with Rain 63 17.2 60 15.6 90 90 ESE 15 24 30.24 1024 3 5 0.58 14.73
7:53 am 07:53 Cloudy with Rain 63 17.2 60 15.6 90 90 ESE 18 30 30.23 1024 4 6 0.61 15.49
8:53 am 08:53 Cloudy with Light Rain 62 16.7 59 15 90 90 SE 13 20 30.21 1023 7 11 0.13 3.30
9:53 am 09:53 Mostly Cloudy 63 17.2 59 15 87 87 SSE 14 22 30.18 1022 10 16 0.01 0.25
10:53 am 10:53 Mostly Cloudy 64 17.8 57 13.9 78 78 SSE 22 35 30.14 1021 10 16 0.00 0.00
11:53 am 11:53 Cloudy 66 18.9 56 13.3 70 70 SE 18 30 30.13 1020 10 16 0.00 0.00
12:53 pm 12:53 Cloudy 66 18.9 58 14.4 75 75 SSE 18 30 30.10 1019 10 16 0.01 0.13
1:53 pm 13:53 Cloudy 68 20 56 13.3 65 65 S 25 41 30.04 1017 10 16 0.00 0.00
2:53 pm 14:53 Mostly Cloudy 71 21.7 58 14.4 63 63 S 22 35 30.04 1017 10 16 0.00 0.00
3:53 pm 15:53 Mostly Cloudy 73 22.8 59 15 61 61 SSE 16 26 30.03 1017 10 16 0.00 0.00
4:53 pm 16:53 Cloudy 70 21.1 59 15 68 68 S 12 19 30.02 1017 10 16 0.01 0.13
5:53 pm 17:53 Cloudy 70 21.1 59 15 68 68 SSE 15 24 30.01 1016 10 16 0.00 0.00
6:53 pm 18:53 Cloudy 69 20.6 59 15 70 70 SSE 13 20 29.99 1016 10 16 0.00 0.00
7:53 pm 19:53 Cloudy 69 20.6 58 14.4 68 68 SSE 10 17 29.98 1015 10 16 0.00 0.00
8:53 pm 20:53 Cloudy 68 20 59 15 73 73 SE 9 15 29.97 1015 10 16 0.00 0.00
9:53 pm 21:53 Cloudy 68 20 58 14.4 70 70 SE 10 17 29.98 1015 10 16 0.00 0.00
10:53 pm 22:53 Cloudy 67 19.4 58 14.4 73 73 ESE 13 20 29.97 1015 10 16 0.00 0.00
11:53 pm 23:53 Cloudy 66 18.9 58 14.4 75 75 SE 14 22 29.95 1014 10 16 0.00 0.00

Powered by AerisWeather